Showing default

COSMOS 252, 3530

Orbit data source: Space-Track

COSMOS 252, 3530 is a payload satellite owned by PKO (CIS) in LEO that was launched on Fri, 01 Nov 1968 UTC via a TSIKLON-2A launch vehicle from the Tyuratam Missile And Space Complex (TTMTR). Payloads include a variety of satellites, spacecraft, and rockets equipped with specific instruments for various scientific and technological missions. These include communications satellites like Starlink; space stations such as the ISS; scientific satellites like the Hubble; Earth observation satellites from companies like Planet Labs, Umbra, and HawkEye 360; GPS; miniature CubeSats for education and research; and military/defense satellites.

Loading next visibility...
COSMOS 252 details
Identifier
3530, 1968-097A
Orbit
LEO
Last TLE update19 hours ago
Origin
Flag of CISPKO (CIS)
ManufacturerTSKBM/KB1
MissionDefense Weapon
Bus & MotorIS, Unknown motor
Mass1,400 kg wet, ~1,400 kg dry
Launch date (UTC)
1968-11-01 (56 years ago)
Launch vehicle
TSIKLON-2A
Launch site
Tyuratam Missile And Space Complex (TTMTR)
Object type
Payload
Rocket body
Debris
Shape & HBRCyl, 4 m
Radar Cross Section7.854 m², Large (>1 m²)

Expand to show TLE details & history

TLE from 19 hours ago
0 COSMOS 252
1  3530U 68097A   24360.63603153  .00000444  00000-0  23580-3 0  9996
2  3530  62.3336  34.8289 0975053 304.4056  46.8432 12.88031608636178
Epoch: 2024-12-25T15:15Z
Definitive object data (Epoch: 2024-12-25T15:15:53.124Z)
Latitude0.00002°
Longitude71.23062°
Altitude841.282 km
Speed7.656 km/s
True Right ascension02h 19m 18s
True Declination0° 00' 00"
Sunlit
Object was in daylight at TLE epoch
Visualization TLE readout
Latitude54.95442°
Longitude-158.81709°
Altitude2,047.067 km
Speed6.55 km/s
Apparent Right ascension16h 33m 52s
Apparent Declination63° 03' 58"
Sunlit
Object is in daylight
Visualization observer readout
Local Sidereal Time09:51:55
Azimuth31.157° NE
Elevation30.586°
Doppler factor1
Orbital elements
Apogee altitude2,057.795 km
Perigee altitude558.854 km
Semi-major axis7,686.461 km
Eccentricity0.0975053
Inclination62.3336°
RAAN34.8289°
Arg. of periapsis304.4056°
True anomaly55.69653°
Mean anomaly46.8432°
Eccentric anomaly51.19689°
Mean motion3.22072 °/min
BSTAR0.0002358
Orbital period111.78 mins
Loading maneuver chart data...

COSMOS 252 Visibility forecast

Observer location: undefined°, undefined

Span
Click to sort rows by Start time (UTC) header in descending order
Start Az.
Max El. time (UTC)
Max El. Az.
Max El.
End time (UTC)
End Az.
9 mins2024-12-26 10:30:43.989Z31.272° NE2024-12-26 10:30:43.989Z31.272° NE26.978°2024-12-26 10:39:43.989Z81.89° E
21 mins2024-12-26 12:18:43.989Z328.879° NNW2024-12-26 12:28:43.989Z47.545° ENE42.978°2024-12-26 12:39:43.989Z131.612° SE
20 mins2024-12-26 14:14:43.989Z312.13° NW2024-12-26 14:24:43.989Z250.22° W34.309°2024-12-26 14:34:43.989Z184.845° SSW
11 mins2024-12-27 02:47:43.989Z144.878° SSE2024-12-27 02:51:43.989Z102.379° ESE23.877°2024-12-27 02:58:43.989Z53.133° ENE
15 mins2024-12-27 04:40:43.989Z228.223° WSW2024-12-27 04:46:43.989Z330.756° NNW43.35°2024-12-27 04:55:43.989Z33.25° NE
14 mins2024-12-27 06:38:43.989Z289.192° WNW2024-12-27 06:44:43.989Z339.093° N25.366°2024-12-27 06:52:43.989Z28.971° NE
14 mins2024-12-27 08:38:43.989Z325.622° NNW2024-12-27 08:44:43.989Z3.777° NNE20.666°2024-12-27 08:52:43.989Z48.542° ENE
|